Regional Weather Roundup
Issued by NWS Newport/Morehead, NC

Current Version | Previous Version | Text Only | Print | Product List | Glossary On
Versions: 1 2 3 4 5 6 7 8 9 10 11 12 13 14 15 16 17 18 19 20 21 22 23 24 25 26 27 28 29 30 31 32 33 34 35 36 37 38 39 40 41 42 43 44 45 46 47 48 49 50
380 ASUS42 KMHX 251925 RWRMHX WEATHER ROUNDUP FOR EASTERN NORTH CAROLINA NATIONAL WEATHER SERVICE NEWPORT/MOREHEAD CITY NC 200 PM EST SAT FEB 25 2017 NOTE: "FAIR" INDICATES FEW OR NO CLOUDS BELOW 12,000 FEET WITH NO SIGNIFICANT WEATHER AND/OR OBSTRUCTIONS TO VISIBILITY NCZ015>017-031-032-045>047-102-103-252000- NORTH COAST CITY SKY/WX TMP DP RH WIND PRES REMARKS EDENTON PTSUNNY 77 57 50 SW12G17 29.63F ELIZABETH CITY SUNNY 77 55 46 S15G23 29.62F KITTY HAWK NOT AVBL MANTEO SUNNY 69 60 72 S16G23 29.64F $$ NCZ045>047-081-094-103-104-252000- CENTRAL COAST CITY SKY/WX TMP DP RH WIND PRES REMARKS FRISCO SUNNY 74 62 66 SW10 29.70F HAZE $$ NCZ095-097-098-100-101-252000- SOUTHERN COAST CITY SKY/WX TMP DP RH WIND PRES REMARKS BEAUFORT SUNNY 71 64 78 S18 29.70F CEDAR ISLAND NOT AVBL JACKSONVILLE SUNNY 77 61 57 S15G21 29.66F PINEY ISLAND CLEAR N/A N/A N/A S21G30 29.68F WILMINGTON SUNNY 77 63 61 S20G25 29.68F $$ NCZ011>013-027>030-043-044-078>080-089-090>093-098-252000- COASTAL PLAIN CITY SKY/WX TMP DP RH WIND PRES REMARKS AHOSKIE N/A 77 57 50 S16 29.60F CLINTON SUNNY 79 60 51 SW9G17 29.63F ELIZABETHTOWN MOSUNNY 79 55 43 SW14G22 29.65F GOLDSBORO MOSUNNY 80 56 43 SW12G24 29.61F GREENVILLE MOSUNNY 81 55 41 SW12G26 29.65F HAVELOCK MOSUNNY 75 59 57 S20G25 29.68F KENANSVILLE PTSUNNY 79 57 47 SW6G20 29.63F KINSTON PTSUNNY 81 54 39 SW16G25 29.64F NEW BERN MOSUNNY 79 59 50 S13G21 29.66F RICHLANDS PTSUNNY 79 58 48 S17 29.66F ROCKY MOUNT PTSUNNY 80 58 46 S15G28 29.60F WASHINGTON SUNNY 79 56 45 SW13G18 29.63F WHITEVILLE PTSUNNY 80 55 41 SW16G28 29.67F $$ AMZ130-135-150-152-154-156-158-170-250-252-270-ANZ085-086-088-633-658-670-252000- MARINE OBSERVATIONS STATION/POSITION TIME TEMP WIND PRES WAVE SWELL AIR SEA DIR/SP/G HT/PER HT/PER (UTC) (F) (DEG/KT/KT) (MB) (FT/S) (FT/S) CHESAPEAKE LIGHT NOT AVBL 64 E VA BEACH 1850 59 56 170/ 8/ 10 1004.2 7/11 7/11 DUCK 1900 58 50 150/ 13/ 16 1002.9 2 E DUCK 1900 53 N/A 4/11 3/11 OREGON INLET 1900 66 56 170/ 12/ 15 1004.4 13E OREGON INLT NOT AVBL HATTERAS CG 1900 71 63 200/ 6/ 10 1005.2 DIAMOND BUOY 1850 71 76 220/ 14/ 17 1005.7 7/10 7/10 CAPE LOOKOUT 1900 70 210/ 12/ 19 1005.6 BEAUFORT LAB 1900 68 62 210/ 13/ 17 1004.7 30 SE NEW RVR IN 1908 68 220/ 16/ 19 1006.1 30 SE NEW RVR IN 1843 69 N/A 6/10 3/11 27 SE WRIGHTSVLE 1908 68 65 200/ 12/ 17 1005.5 5 SE WRIGHTSVLE 1908 62 59 180/ 10/ 17 1005.6 225 S CAPE HAT 1850 71 71 260/ 8/ 12 1009.5 8/10 8/10 41 SE CHARLESTON 1850 69 71 220/ 17/ 19 1007.6 6/10 5/10 $$

USA.gov is the U.S. government's official web portal to all federal, state and local government web resources and services.